TimeEST,TemperatureF,Dew PointF,Humidity,Sea Level PressureIn,VisibilityMPH,Wind Direction,Wind SpeedMPH,Gust SpeedMPH,PrecipitationIn,Events,Conditions,WindDirDegrees,DateUTC
12:00 AM,30.2,15.8,55,30.28,10.0,Calm,Calm,-,N/A,,Clear,0,2003-12-31 05:00:00
12:20 AM,30.2,19.4,64,30.29,10.0,Calm,Calm,-,N/A,,Clear,0,2003-12-31 05:20:00
12:40 AM,30.2,19.4,64,30.29,10.0,Calm,Calm,-,N/A,,Clear,0,2003-12-31 05:40:00
1:03 AM,30.2,17.6,60,30.29,10.0,Calm,Calm,-,N/A,,Clear,0,2003-12-31 06:03:00
1:20 AM,30.2,15.8,55,30.30,10.0,SSW,3.5,-,N/A,,Clear,200,2003-12-31 06:20:00
1:40 AM,30.2,15.8,55,30.31,10.0,Calm,Calm,-,N/A,,Clear,0,2003-12-31 06:40:00
2:00 AM,30.2,17.6,60,30.31,10.0,Calm,Calm,-,N/A,,Clear,0,2003-12-31 07:00:00
2:22 AM,28.4,17.6,64,30.31,10.0,Calm,Calm,-,N/A,,Clear,0,2003-12-31 07:22:00
2:42 AM,26.6,17.6,69,30.31,10.0,Calm,Calm,-,N/A,,Clear,0,2003-12-31 07:42:00
3:00 AM,26.6,17.6,69,30.31,10.0,Calm,Calm,-,N/A,,Clear,0,2003-12-31 08:00:00
3:20 AM,26.6,17.6,69,30.31,10.0,Calm,Calm,-,N/A,,Clear,0,2003-12-31 08:20:00
3:42 AM,26.6,17.6,69,30.31,10.0,Calm,Calm,-,N/A,,Clear,0,2003-12-31 08:42:00
4:00 AM,30.2,17.6,60,30.31,10.0,Calm,Calm,-,N/A,,Clear,0,2003-12-31 09:00:00
4:20 AM,30.2,15.8,55,30.31,10.0,Calm,Calm,-,N/A,,Clear,0,2003-12-31 09:20:00
4:40 AM,30.2,14.0,51,30.30,10.0,Calm,Calm,-,N/A,,Clear,0,2003-12-31 09:40:00
5:00 AM,26.6,15.8,64,30.31,10.0,Calm,Calm,-,N/A,,Clear,0,2003-12-31 10:00:00
5:20 AM,26.6,15.8,64,30.31,10.0,Calm,Calm,-,N/A,,Clear,0,2003-12-31 10:20:00
5:40 AM,26.6,15.8,64,30.31,10.0,Calm,Calm,-,N/A,,Clear,0,2003-12-31 10:40:00
6:02 AM,28.4,15.8,59,30.32,10.0,Calm,Calm,-,N/A,,Clear,0,2003-12-31 11:02:00
6:20 AM,26.6,15.8,64,30.32,10.0,Calm,Calm,-,N/A,,Clear,0,2003-12-31 11:20:00
6:40 AM,28.4,14.0,55,30.31,10.0,Calm,Calm,-,N/A,,Clear,0,2003-12-31 11:40:00
7:00 AM,30.2,12.2,47,30.31,10.0,Calm,Calm,-,N/A,,Clear,0,2003-12-31 12:00:00
7:20 AM,30.2,12.2,47,30.31,10.0,Calm,Calm,-,N/A,,Clear,0,2003-12-31 12:20:00
7:40 AM,32.0,8.6,38,30.31,10.0,Calm,Calm,-,N/A,,Clear,0,2003-12-31 12:40:00
8:00 AM,30.2,12.2,47,30.31,10.0,Calm,Calm,-,N/A,,Clear,0,2003-12-31 13:00:00
8:20 AM,30.2,15.8,55,30.32,10.0,Calm,Calm,-,N/A,,Clear,0,2003-12-31 13:20:00
8:40 AM,33.8,12.2,41,30.33,10.0,Calm,Calm,-,N/A,,Clear,0,2003-12-31 13:40:00
9:00 AM,30.2,17.6,60,30.34,10.0,Calm,Calm,-,N/A,,Clear,0,2003-12-31 14:00:00
9:20 AM,35.6,14.0,41,30.36,10.0,East,3.5,-,N/A,,Clear,100,2003-12-31 14:20:00
9:40 AM,35.6,17.6,48,30.37,10.0,NE,3.5,-,N/A,,Clear,50,2003-12-31 14:40:00
10:00 AM,37.4,21.2,52,30.37,10.0,Calm,Calm,-,N/A,,Clear,0,2003-12-31 15:00:00
10:20 AM,37.4,19.4,48,30.37,10.0,Calm,Calm,-,N/A,,Clear,0,2003-12-31 15:20:00
10:40 AM,42.8,19.4,39,30.36,10.0,Calm,Calm,-,N/A,,Clear,0,2003-12-31 15:40:00
11:00 AM,44.6,12.2,27,30.35,10.0,Calm,Calm,-,N/A,,Clear,0,2003-12-31 16:00:00
11:20 AM,46.4,10.4,23,30.33,10.0,Calm,Calm,-,N/A,,Clear,0,2003-12-31 16:20:00
11:40 AM,50.0,12.2,22,30.32,10.0,SSE,3.5,-,N/A,,Clear,150,2003-12-31 16:40:00
12:00 PM,50.0,10.4,20,30.31,10.0,Calm,Calm,-,N/A,,Clear,0,2003-12-31 17:00:00
12:20 PM,50.0,8.6,19,30.29,10.0,East,4.6,-,N/A,,Clear,100,2003-12-31 17:20:00
12:40 PM,53.6,6.8,15,30.28,10.0,West,6.9,-,N/A,,Clear,270,2003-12-31 17:40:00
1:00 PM,53.6,-0.4,11,30.27,10.0,WNW,3.5,-,N/A,,Clear,290,2003-12-31 18:00:00
1:21 PM,55.4,-5.8,8,30.26,10.0,WNW,8.1,16.1,N/A,,Clear,290,2003-12-31 18:21:00
1:40 PM,55.4,-5.8,8,30.26,10.0,WNW,9.2,-,N/A,,Clear,290,2003-12-31 18:40:00
2:00 PM,53.6,-7.6,8,30.26,10.0,WNW,9.2,-,N/A,,Clear,300,2003-12-31 19:00:00
2:20 PM,53.6,-7.6,8,30.25,10.0,West,18.4,21.9,N/A,,Clear,280,2003-12-31 19:20:00
2:40 PM,51.8,-7.6,8,30.26,10.0,WNW,15.0,19.6,N/A,,Clear,290,2003-12-31 19:40:00
3:03 PM,51.8,-5.8,9,30.27,10.0,WNW,5.8,20.7,N/A,,Clear,300,2003-12-31 20:03:00
3:20 PM,51.8,-4.0,10,30.27,10.0,West,8.1,-,N/A,,Clear,270,2003-12-31 20:20:00
3:40 PM,50.0,-4.0,11,30.28,10.0,West,11.5,-,N/A,,Clear,280,2003-12-31 20:40:00
4:01 PM,50.0,-0.4,13,30.28,10.0,West,9.2,-,N/A,,Clear,270,2003-12-31 21:01:00
4:20 PM,50.0,1.4,14,30.28,10.0,WNW,4.6,-,N/A,,Clear,290,2003-12-31 21:20:00
4:40 PM,48.2,-0.4,13,30.28,10.0,West,6.9,-,N/A,,Clear,270,2003-12-31 21:40:00
5:00 PM,46.4,-0.4,14,30.29,10.0,West,8.1,-,N/A,,Clear,260,2003-12-31 22:00:00
5:21 PM,44.6,1.4,17,30.29,10.0,WNW,6.9,-,N/A,,Clear,290,2003-12-31 22:21:00
5:44 PM,42.8,3.2,19,30.30,10.0,West,6.9,-,N/A,,Clear,280,2003-12-31 22:44:00
6:01 PM,42.8,5.0,21,30.30,10.0,West,8.1,-,N/A,,Clear,280,2003-12-31 23:01:00
6:20 PM,42.8,6.8,23,30.31,10.0,West,6.9,-,N/A,,Clear,280,2003-12-31 23:20:00
6:42 PM,41.0,6.8,24,30.31,10.0,Calm,Calm,-,N/A,,Clear,0,2003-12-31 23:42:00
7:01 PM,41.0,6.8,24,30.31,10.0,West,9.2,-,N/A,,Clear,280,2004-01-01 00:01:00
7:21 PM,41.0,6.8,24,30.31,10.0,West,12.7,17.3,N/A,,Clear,280,2004-01-01 00:21:00
7:42 PM,42.8,1.4,18,30.30,10.0,West,6.9,-,N/A,,Clear,270,2004-01-01 00:42:00
8:01 PM,42.8,-2.2,15,30.31,10.0,West,10.4,-,N/A,,Clear,280,2004-01-01 01:01:00
8:21 PM,42.8,-2.2,15,30.31,10.0,West,10.4,16.1,N/A,,Clear,280,2004-01-01 01:21:00
8:41 PM,42.8,-2.2,15,30.31,10.0,WNW,19.6,25.3,N/A,,Clear,290,2004-01-01 01:41:00
9:02 PM,42.8,-2.2,15,30.31,10.0,West,19.6,24.2,N/A,,Clear,270,2004-01-01 02:02:00
9:21 PM,42.8,-2.2,15,30.31,10.0,West,13.8,27.6,N/A,,Clear,270,2004-01-01 02:21:00
9:42 PM,42.8,-0.4,16,30.32,10.0,West,9.2,17.3,N/A,,Clear,270,2004-01-01 02:42:00
10:01 PM,42.8,1.4,18,30.31,10.0,West,16.1,23.0,N/A,,Clear,280,2004-01-01 03:01:00
10:22 PM,42.8,1.4,18,30.31,10.0,West,18.4,24.2,N/A,,Clear,280,2004-01-01 03:22:00
10:41 PM,42.8,3.2,19,30.32,10.0,West,15.0,20.7,N/A,,Clear,270,2004-01-01 03:41:00
11:02 PM,42.8,5.0,21,30.31,10.0,West,12.7,21.9,N/A,,Clear,270,2004-01-01 04:02:00
11:21 PM,41.0,5.0,23,30.31,10.0,West,12.7,18.4,N/A,,Clear,270,2004-01-01 04:21:00
11:41 PM,42.8,3.2,19,30.30,10.0,West,10.4,-,N/A,,Clear,260,2004-01-01 04:41:00